Location: Brame-Jean
(43.7345°N, 5.2277°E)
Time: 21:35:37
(UTC+00:00)

Daily predictions for brighter satellites

Satellite Brightness Start Highest point End
(mag) Time Altitude Azimuth Time Altitude Azimuth Time Altitude Azimuth
Cosmos 2263 Rocket 3.4 17:52:07 10° SW 17:57:28 47° WNW 18:02:53 10° NNE
Cosmos 1939 Rocket 3.1 17:57:00 10° S 18:01:09 80° W 18:05:19 10° NNW
USA 116 4.3 17:57:42 10° NNE 18:01:14 36° E 18:05:07 10° SSE
Cosmos 1844 Rocket 3.0 17:56:45 10° S 18:01:56 42° ESE 18:07:12 10° NE
Cosmos 1842 4.0 17:59:11 10° NNW 18:03:00 58° W 18:06:49 10° S
Cosmos 372 Rocket 4.0 17:58:35 10° SSW 18:03:48 76° ESE 18:09:02 10° NNE
Cosmos 1707 2.9 18:02:13 10° N 18:05:58 51° E 18:09:42 10° SSE
CZ-2C R/B 3.3 18:04:24 10° SW 18:06:56 17° SSW 18:09:22 10° SSE
NOSS 3-2 (C) 4.4 17:59:59 10° NNW 18:07:10 49° NE 18:15:15 10° ESE
Cosmos 1844 4.1 18:04:10 10° S 18:09:24 40° ESE 18:14:37 10° NE
Cosmos 2034 Rocket 4.5 18:04:07 10° SSE 18:09:56 39° E 18:15:43 10° NNE
ISS -2.2 18:07:32 10° W 18:10:37 32° NNW 18:13:43 10° NE
NOSS 3-4 (A) 4.3 18:06:08 10° SSE 18:10:49 25° ESE 18:15:42 10° ENE
NOSS 3-4 (C) 4.3 18:06:16 10° SSE 18:10:56 25° ESE 18:15:47 10° ENE
USA 186 3.8 18:11:03 10° E 18:12:25 13° ENE 18:13:57 10° NE
Meteor 1-12 Rocket 4.3 18:07:27 10° S 18:13:13 60° E 18:18:55 10° NNE
Cosmos 1300 Rocket 3.6 18:14:16 10° S 18:18:35 60° E 18:22:58 10° NNE
Okean 1 Rocket 4.2 18:18:30 10° SE 18:21:58 22° E 18:25:27 10° NE
Sich 1 Rocket 3.9 18:18:25 10° SSW 18:22:55 76° W 18:27:31 10° N
Cosmos 2298 Rocket 4.0 18:19:46 10° SSW 18:25:05 79° ESE 18:30:26 10° NNE
CENTAUR R/B 3.4 18:18:24 10° NNW 18:26:20 59° NE 18:34:46 11° SE
Cosmos 1833 Rocket 4.4 18:23:53 10° N 18:27:27 17° NE 18:30:12 12° ENE
CSL-04 Debris 4.1 18:23:56 10° SSE 18:29:18 76° ENE 18:34:42 10° N
CSL-04 Rocket 3.7 18:25:50 10° SSE 18:31:15 76° ENE 18:36:47 10° N
Cosmos 1766 4.4 18:29:55 10° SE 18:32:58 22° E 18:36:04 10° NE
ATLAS 2AS CENTAUR R/B 3.4 18:25:54 10° S 18:33:05 40° ESE 18:40:20 10° NE
Okean 2 Rocket 3.1 18:28:38 10° S 18:33:08 88° E 18:37:37 10° N
YAOGAN 1 2.9 18:29:37 10° S 18:33:55 68° W 18:38:14 10° NNW
Cosmos 1025 Rocket 3.0 18:31:01 10° N 18:35:26 79° E 18:39:50 10° SSE
ATLAS 3B R/B 3.8 18:32:26 10° NNW 18:38:14 28° NE 18:42:35 16° E
Abrixas rocket 2.3 18:38:16 10° WNW 18:41:02 48° NNE 18:42:11 28° ENE
SWAS 4.4 18:36:56 10° NNW 18:41:13 64° ENE 18:44:39 15° SE
CREW DRAGON DEMO-1 DEB 3.4 18:40:11 10° NW 18:43:06 44° NNE 18:44:16 28° E
Cosmos 1536 Rocket 3.5 18:40:45 10° N 18:45:13 74° E 18:49:42 10° SSE
Cosmos 1125 Rocket 3.4 18:40:26 10° SSW 18:45:43 74° ESE 18:51:03 10° NNE
SJ-6B 3.6 18:48:31 26° E 18:49:17 28° ENE 18:52:33 10° N
CZ-4 R/B 3.2 18:47:44 10° SSW 18:51:36 34° W 18:55:26 10° NNW
SJ-11-01 4.4 18:47:51 10° S 18:52:33 76° WSW 18:57:16 10° NNW
Cosmos 2150 Rocket 4.5 18:47:19 10° SSW 18:52:41 67° WNW 18:58:08 10° NNE
CZ-2C R/B 3.6 18:48:18 10° S 18:53:35 64° W 18:59:12 10° NNW
Cosmos 1464 Rocket 4.3 18:47:53 10° SSW 18:53:59 71° W 19:00:12 10° N
USA 238 DEB 4.0 18:48:24 10° NW 18:55:40 78° WSW 19:03:10 10° SSE
USA 238 4.0 18:48:30 10° NW 18:55:46 78° WSW 19:03:17 10° SSE
Cosmos 2285 Rocket 3.9 18:50:07 10° S 18:56:22 72° ESE 19:02:43 10° NNE
Cosmos 1674 2.6 18:53:44 10° N 18:57:35 67° E 19:00:17 18° SSE
Cosmos 2026 Rocket 4.4 18:52:22 10° N 18:58:24 42° ENE 19:02:16 21° SE
Cosmos 1092 Rocket 4.1 18:52:35 10° N 18:58:39 54° ENE 19:04:17 12° SSE
MOS 1 Rocket 3.2 18:59:40 10° N 19:04:01 75° WNW 19:08:17 10° SSW
TSX-5 3.8 19:03:59 10° SSW 19:07:39 61° ESE 19:12:20 10° NNE
ARGOS 3.2 19:03:48 10° S 19:09:10 80° WSW 19:14:35 10° NNW
Cosmos 1340 Rocket 4.2 19:15:11 24° NE 19:15:11 24° NE 19:17:04 10° NNE
CZ-2C R/B 2.7 19:08:50 10° NNE 19:14:23 62° E 19:19:56 10° S
Cosmos 1733 3.1 19:13:47 38° SSE 19:15:02 61° E 19:18:50 10° NNE
MOS 1 4.3 19:13:05 24° SSE 19:16:35 65° ENE 19:22:14 10° N
Lacrosse 5 rocket 3.7 19:16:11 10° NNW 19:19:02 16° NNE 19:20:43 14° NE
Cosmos 2082 Rocket 3.5 19:16:21 10° N 19:20:47 23° NE 19:21:17 23° ENE
Shenzhou-11 Module 4.5 19:20:24 10° WSW 19:20:33 11° WSW 19:20:33 11° WSW
BREEZE-M R/B 4.3 19:12:25 10° WSW 19:23:03 64° NNW 19:24:25 35° NE
BREEZE-M DEB (TANK) 3.6 19:19:41 10° WNW 19:23:07 60° SSW 19:27:36 26° SE
DMSP B5D2-2 4.0 19:18:56 10° NNE 19:24:12 65° ESE 19:29:26 10° S
Cosmos 494 Rocket 4.4 19:20:42 10° NNW 19:25:54 62° WSW 19:29:53 17° S
Cosmos 1805 3.6 19:23:05 10° SSW 19:26:57 65° W 19:30:52 10° N
OBJECT-B 2.8 19:28:48 21° NNE 19:28:48 21° NNE 19:30:05 10° N
Ariane Rocket 3.0 19:28:06 26° S 19:31:02 84° WSW 19:36:10 10° NNW
SL-08 RB Rocket 4.1 19:27:52 18° S 19:31:09 64° W 19:35:39 10° NNW
Milstar 3 Cent rocket 3.9 19:27:30 10° SW 19:31:54 18° S 19:32:39 17° S
H-2A R/B 3.5 19:28:04 10° SSW 19:32:38 36° W 19:37:20 10° NNW
USA 234 4.1 19:38:14 29° SSE 19:38:14 29° SSE 19:42:08 10° SSW
Cosmos 1269 Rocket 4.0 19:32:33 10° NNW 19:37:54 87° W 19:39:33 46° SSE
MetOp-A 4.1 19:40:20 37° S 19:42:33 84° WSW 19:47:57 10° NNW
USA 186 3.2 19:42:34 35° WSW 19:42:46 36° W 19:45:50 10° NNW
Cosmos 1626 2.7 19:39:09 10° N 19:42:02 52° NNW 19:42:02 52° NNW
Cosmos 1844 Rocket 4.5 19:41:03 10° WSW 19:45:57 31° NW 19:50:55 10° N
COSMOS 2406 3.1 19:41:27 10° NNW 19:47:09 75° ENE 19:47:56 64° ESE
ISS -1.5 19:45:30 10° NW 19:47:46 20° N 19:47:46 20° N
Cosmos 2278 Rocket 2.8 19:44:09 10° S 19:51:32 42° NE 19:55:19 10° NNE
Meteor 1-22 Rocket 4.4 19:48:27 10° SSW 19:54:20 77° W 20:00:27 10° N
Lacrosse 4 Rocket 3.1 19:50:51 10° NNW 19:52:52 23° N 19:52:52 23° N
Meteor 2-5 Rocket 4.3 19:51:48 10° NNW 19:57:21 56° W 20:00:46 24° SSW
Meteor 1-24 Rocket 3.9 19:54:09 10° NNW 19:59:44 70° W 20:01:37 42° SSW
NOSS 3-4 (A) 3.9 19:55:20 10° SW 20:01:10 59° NW 20:07:25 10° NNE
NOSS 3-4 (C) 3.8 19:55:26 10° SW 20:01:15 60° NW 20:07:31 10° NNE
Resurs 01 Rocket 2.7 20:03:26 37° N 20:03:26 37° N 20:06:13 10° N
SL-14 R/B 4.3 19:58:56 10° NNW 20:01:55 44° NW 20:01:55 44° NW
Meteor 2-19 Rocket 4.3 19:57:50 10° N 20:03:47 67° ENE 20:03:47 67° ENE
Cosmos 1833 Rocket 2.6 20:06:33 10° NNW 20:11:54 79° N 20:11:54 79° N
Cosmos 2251 Rocket 4.3 20:09:51 10° NNW 20:13:44 43° NNE 20:13:44 43° NNE
CENTAUR R/B 4.1 20:09:24 10° NW 20:17:05 43° WSW 20:22:00 23° S
SPOT 3 Rocket 3.9 20:20:50 63° WNW 20:20:50 63° WNW 20:25:34 10° NNW
ATLAS 2AS CENTAUR R/B 3.6 20:16:08 10° SW 20:23:56 57° NW 20:31:42 10° NNE
ATLAS 3B R/B 2.6 20:22:46 10° NW 20:29:40 83° WSW 20:29:50 82° SSW
Cosmos 1655 Rocket 4.2 20:32:23 10° N 20:37:50 68° NNW 20:37:50 68° NNW
Lacrosse 5 rocket 4.1 20:55:01 10° NW 20:56:20 18° NNW 20:56:20 18° NNW
Cosmos 2082 Rocket 3.5 20:59:46 10° NNW 21:03:08 36° NW 21:03:08 36° NW
Cosmos 2278 Rocket 4.3 21:33:01 21° WNW 21:34:17 23° NW 21:38:42 10° N
